sat.trackr.live / text

‹ back to catalog

STARLINK-5756

NORAD 55598 · 2023-020AF

PAYLOAD ACTIVE UNKNOWN

§ Identity

Operator
Country
US
Launch date
2023-02-12
Launch site
AFETR
Launch vehicle
Mass (kg)
RCS (m²)

Purposes: comms

External: N2YO · Heavens-Above · Gunter

§ Orbital elements

Epoch: 2026-09-20T21:47:36.371904Z

Period
94.27 min
Inclination
43.0043°
Eccentricity
0.0001726
Mean motion
15.27568864 rev/d
Perigee alt
481.9 km
Apogee alt
484.3 km
Semi-major
6,861.2 km
B*
-8.5900e-5
RAAN
331.8749°
Arg perigee
290.0678°
Mean anomaly
69.9988°
Rev number
19,889

§ Raw data

STARLINK-57561 55598U 23020AF  26263.90805986 -.00002624  00000+0 -85900-4 0  99942 55598  43.0043 331.8749 0001726 290.0678  69.9988 15.27568864198897

JSON: /api/v1/satellites/55598 · /tle

For live sub-satellite position, see the globe view (requires WebGL).

§ Visibility from observer

Set your observer location to see the next 7 days of passes ≥ 10°. The values pass through the URL so the page stays shareable.

No JS? Fill the form by hand. The geolocation button needs JavaScript.